Location: Hungerford
(51.4167°N, 1.5167°W)
Time: 11:02:08
(UTC+00:00)

Daily predictions for brighter satellites

Satellite Brightness Start Highest point End
(mag) Time Altitude Azimuth Time Altitude Azimuth Time Altitude Azimuth
USA 102 3.8 18:40:27 10° SE 18:46:58 69° ENE 18:49:27 10° NNW
USA 229 DEB 4.3 18:42:42 10° WSW 18:49:12 59° NW 18:56:10 10° NE
USA 229 4.3 18:42:47 10° WSW 18:49:18 60° NW 18:56:16 10° NE
Cosmos 1782 Rocket 3.7 18:45:27 10° S 18:49:43 51° E 18:54:03 10° NNE
NOSS 3-2 (C) 4.5 18:43:58 10° NW 18:50:45 47° NNE 18:58:31 10° ESE
Cosmos 1975 2.9 18:46:43 10° S 18:50:46 63° E 18:54:49 10° NNE
Cosmos 1025 Rocket 4.0 18:46:57 10° N 18:50:48 29° ENE 18:54:39 10° SE
Cosmos 2233 Rocket 4.0 18:44:44 10° S 18:50:58 78° E 18:57:10 10° NNE
CZ-4 R/B 2.2 18:47:34 10° S 18:51:45 58° W 18:55:55 10° NNW
Cosmos 1908 Rocket 3.6 18:47:33 10° S 18:51:54 90° NNW 18:56:20 10° N
USA 186 2.8 18:49:53 10° SE 18:52:34 26° ENE 18:55:21 10° N
Meteor 2-11 Rocket 4.5 18:47:28 10° S 18:53:34 68° E 18:59:41 10° NNE
Cosmos 1725 Rocket 4.5 18:49:32 10° SSW 18:55:48 69° WNW 19:02:03 10° N
Cosmos 2082 Rocket 4.3 18:57:09 10° N 18:59:42 13° NNE 19:02:13 10° NE
OPS 6432 4.5 18:57:22 10° NW 19:00:24 75° SW 19:04:07 10° SE
NOSS 3-1 (A) 4.0 18:55:44 10° WSW 19:01:22 60° NW 19:08:05 10° NE
Cosmos 1544 3.5 18:57:55 10° SSW 19:01:35 67° WNW 19:05:14 10° N
Cosmos 1937 Rocket 3.6 18:56:33 10° S 19:01:40 55° ESE 19:06:46 10° NNE
OBJECT-B 2.6 19:01:23 12° E 19:03:09 16° ENE 19:05:17 10° NNE
MOS 1 Rocket 3.4 18:58:46 10° NNE 19:03:10 46° E 19:07:20 10° S
Cosmos 1842 3.7 19:01:58 10° NNW 19:05:49 65° W 19:09:39 10° S
FREGAT/IRIS 3.6 19:05:32 14° ESE 19:07:07 22° ENE 19:09:15 10° NNE
Cosmos 1674 4.2 19:04:37 10° NNE 19:07:32 20° ENE 19:09:42 13° ESE
Cosmos 2297 Rocket 4.4 19:04:15 10° W 19:09:00 27° NW 19:13:46 10° NNE
Cosmos 1975 Rocket 3.1 19:06:27 10° NNW 19:10:49 83° W 19:15:07 10° S
NOSS 8 (H) 4.2 19:10:15 10° SSW 19:13:18 51° SE 19:16:16 10° NE
COSMO-SKYMED 1 4.3 19:09:18 10° N 19:13:20 38° WNW 19:17:20 10° SW
NOSS 8 (E) 4.0 19:10:13 10° SW 19:13:22 88° SE 19:16:25 10° NE
In-Cosmos 22 4.2 19:09:29 10° N 19:14:42 54° ENE 19:19:54 10° SSE
NOSS 2-2 (E) 3.7 19:13:55 10° SSW 19:17:11 36° ESE 19:20:53 10° NE
Cosmos 1707 2.6 19:16:29 10° N 19:20:21 71° E 19:24:10 10° SSE
Resurs 01 Rocket 3.0 19:19:17 15° E 19:21:37 23° ENE 19:25:06 10° N
H-2A R/B 2.3 19:16:55 10° S 19:21:51 69° WSW 19:26:57 10° NNW
Lacrosse 4 Rocket 3.9 19:22:20 10° N 19:22:56 10° NNE 19:23:32 10° NNE
ARGOS 3.2 19:17:40 10° SSE 19:23:02 86° WSW 19:28:28 10° NNW
CZ-2C R/B 3.1 19:18:24 10° NNE 19:23:35 40° E 19:28:49 10° SSE
SJ-6B 2.9 19:21:47 11° SE 19:25:17 50° ENE 19:28:58 10° N
NOSS 2-2 (D) 3.7 19:22:25 10° S 19:25:38 35° ESE 19:29:14 10° ENE
Sich 1 Rocket 3.5 19:23:26 10° S 19:27:54 75° E 19:32:28 10° NNE
Iridium 4 Rocket 4.4 19:23:59 10° SSW 19:28:49 53° W 19:34:11 10° N
Cosmos 1048 Rocket 4.2 19:24:40 10° NNW 19:29:54 57° ENE 19:34:10 16° SE
MOS 1 4.3 19:24:18 10° SSE 19:29:56 66° ENE 19:35:36 10° NNW
ATLAS CENTAUR R/B 3.7 19:28:49 10° WNW 19:31:39 19° NNW 19:34:25 10° NNE
CENTAUR R/B 3.3 19:24:06 10° NW 19:31:47 63° NE 19:38:33 18° ESE
ATLAS 3B R/B 3.6 19:31:29 10° NW 19:37:41 37° NNE 19:42:49 15° E
ARIANE 5 R/B 4.1 19:37:43 18° E 19:38:55 20° ENE 19:42:08 10° NNE
SL-08 RB Rocket 3.8 19:34:49 10° SSE 19:39:25 82° WSW 19:44:01 10° NNW
Cosmos 2263 Rocket 2.4 19:33:53 10° SW 19:39:26 74° WNW 19:45:05 10° NNE
USA 238 DEB 3.8 19:32:41 10° NW 19:39:52 81° NE 19:45:38 18° SE
USA 238 3.9 19:32:47 10° NW 19:39:58 80° NE 19:45:43 19° SE
ISS -2.5 19:38:34 10° SSW 19:41:14 23° SSE 19:41:14 23° SSE
Abrixas rocket 2.3 19:39:12 10° WSW 19:41:55 42° S 19:42:31 36° SE
SJ 16-02 3.5 19:39:28 10° WSW 19:43:19 29° NW 19:47:11 10° N
Cosmos 1513 Rocket 4.4 19:37:21 10° S 19:43:38 79° E 19:49:49 10° NNE
Cosmos 1844 Rocket 3.2 19:41:50 10° S 19:46:49 35° ESE 19:51:50 10° NE
Okean 2 Rocket 3.0 19:43:32 10° S 19:48:03 77° E 19:52:33 10° NNE
Lacrosse 5 rocket 2.4 19:47:13 10° W 19:51:25 47° NNW 19:55:13 13° ENE
Cosmos 1464 Rocket 3.9 19:45:38 10° S 19:51:46 85° E 19:57:59 10° N
Okean 1 Rocket 3.8 19:51:22 28° ESE 19:52:30 32° E 19:56:30 10° NNE
Cosmos 1092 Rocket 4.1 19:50:01 10° N 19:56:04 57° ENE 20:00:15 21° SSE
Ariane Rocket 3.2 19:51:05 10° S 19:56:07 72° WSW 20:01:14 10° NNW
Meteor 1-12 Rocket 4.3 19:53:26 10° S 19:59:22 90° WNW 20:05:13 10° NNE
Meteor 1-15 Rocket 4.3 19:54:08 10° S 19:59:32 52° E 20:05:05 10° NNE
Resurs 1-3 3.6 19:57:58 26° SSE 20:00:22 67° ENE 20:04:45 10° N
Cosmos 1300 Rocket 3.6 19:56:38 10° SSW 20:01:03 83° WNW 20:05:30 10° N
Cosmos 494 Rocket 4.0 19:57:41 10° NNW 20:02:56 68° ENE 20:05:36 29° SE
Cosmos 2026 Rocket 4.3 19:57:22 10° N 20:03:34 51° ENE 20:06:56 26° SE
Meteor 2-13 Rocket 4.4 19:58:39 10° N 20:04:50 67° ENE 20:09:01 21° SSE
CZ-2C R/B 4.1 20:00:46 10° NNE 20:04:56 37° E 20:05:30 36° ESE
Cosmos 2298 Rocket 4.0 20:00:13 10° S 20:05:29 64° ESE 20:10:47 10° NNE
Cosmos 1833 Rocket 3.8 20:00:40 10° NNW 20:05:38 30° NE 20:07:47 24° E
SPOT 3 Rocket 3.5 20:03:38 24° SSE 20:06:45 72° ENE 20:11:54 10° NNW
NOSS 3-2 (A) 4.1 20:00:45 10° NW 20:08:08 76° SW 20:13:56 22° SSE
MetOp-A 4.3 20:03:47 10° S 20:09:06 73° WSW 20:14:30 10° NNW
NOSS 2-2 (C) 3.0 20:06:32 10° SW 20:10:05 86° SE 20:14:12 10° NE
Cosmos 1536 Rocket 4.0 20:10:27 10° NNW 20:14:51 62° W 20:18:27 15° S
Cosmos 1626 2.6 20:14:33 10° N 20:17:51 43° ENE 20:17:51 43° ENE
Terra 3.6 20:19:13 17° ENE 20:19:21 17° NE 20:22:21 10° NNE
Cosmos 1892 Rocket 4.2 20:16:09 10° N 20:20:06 36° ENE 20:20:06 36° ENE
CREW DRAGON DEMO-1 DEB 3.0 20:17:09 10° W 20:19:51 67° W 20:19:51 67° W
USA 186 4.2 20:20:46 10° SSW 20:23:17 22° W 20:25:53 10° NW
DMSP B5D2-2 4.1 20:20:42 10° NNE 20:26:01 81° WNW 20:31:18 10° SSW
USA 234 3.3 20:20:11 10° ENE 20:26:33 51° SE 20:32:53 10° SW
Meteor 2-5 Rocket 3.6 20:22:20 10° NNW 20:27:59 81° ENE 20:30:35 34° SSE
Cosmos 2151 Rocket 4.1 20:24:55 10° SSW 20:29:19 60° WNW 20:33:47 10° N
OBJECT-B 2.0 20:34:35 35° SW 20:35:14 39° W 20:38:20 10° NNW
Cosmos 2150 Rocket 4.1 20:30:14 10° SSW 20:35:38 84° WNW 20:41:08 10° NNE
Cosmos 1805 3.1 20:35:56 83° SE 20:36:02 85° E 20:39:59 10° NNE
SPOT 5 3.9 20:40:10 33° ENE 20:40:21 33° ENE 20:45:02 10° N
NOSS 3-2 (C) 4.1 20:34:54 10° NW 20:42:16 73° SW 20:46:12 34° SSE
Cosmos 1674 3.8 20:39:36 10° NNW 20:43:16 42° W 20:44:32 31° SW
Meteor 1-22 Rocket 4.3 20:43:04 46° SSE 20:44:37 62° E 20:50:34 10° NNE
Cosmos 2082 Rocket 3.1 20:40:32 10° NNW 20:45:38 34° NE 20:46:33 32° ENE
Cosmos 1125 Rocket 3.4 20:41:03 10° SSW 20:46:21 85° ESE 20:51:43 10° NNE
Okean 1-7 Rocket 4.1 20:42:42 10° N 20:46:41 47° NE 20:46:41 47° NE
Cosmos 1733 3.9 20:52:17 47° N 20:52:17 47° N 20:55:05 10° N
SL-14 R/B 3.5 20:48:11 10° N 20:51:36 67° NNW 20:51:36 67° NNW
COSMOS 2406 3.1 20:47:48 10° NNW 20:53:30 69° ENE 20:54:20 60° ESE
Meteor 1-24 Rocket 3.6 20:49:22 10° NNW 20:54:50 82° W 20:56:22 50° S
CRYOSAT 2 4.2 20:51:58 10° N 20:56:55 78° E 20:57:03 77° ESE
ERS-1 Rocket 3.4 20:57:24 46° ENE 20:57:24 46° ENE 21:01:58 10° N
Resurs 01 Rocket 2.2 20:56:51 44° SW 20:57:48 53° W 21:02:12 10° NNW
Cosmos 2098 Rocket 4.2 20:55:40 10° N 21:02:52 58° ENE 21:03:50 54° ESE
Lacrosse 4 Rocket 2.8 20:59:18 10° NNW 21:02:11 28° NNE 21:02:11 28° NNE
CZ-2C R/B 4.0 20:58:47 10° N 21:03:53 40° WNW 21:09:02 10° SW
Landsat 7 3.7 21:04:41 87° SSW 21:04:44 88° WSW 21:09:32 10° NNW
Cosmos 2266 Rocket 4.2 20:59:40 10° N 21:05:31 48° ENE 21:05:34 48° ENE
Exosat Rocket 3.6 21:01:29 10° SSW 21:06:56 77° WNW 21:11:58 10° NNE
Cosmos 1766 4.1 21:09:00 50° NW 21:09:00 50° NW 21:12:31 10° N
ATLAS CENTAUR R/B 4.1 21:10:50 10° NNW 21:11:54 11° N 21:12:58 10° NNE
Cosmos 1655 Rocket 3.9 21:05:44 10° N 21:11:58 67° ENE 21:12:30 64° ESE
ATLAS 2AS CENTAUR R/B 3.1 21:04:36 10° SSW 21:12:14 53° ESE 21:19:49 10° NE
IGS 5A 4.0 21:13:37 57° NW 21:13:37 57° NW 21:17:06 10° NNW
SPOT 1/Viking Rocket 3.4 21:14:25 87° SSE 21:14:29 90° WSW 21:19:42 10° NNW
ARIANE 5 R/B 3.0 21:15:16 58° W 21:15:16 58° W 21:19:20 10° NNW
Cosmos 1844 3.9 21:13:00 10° SW 21:18:42 70° WNW 21:24:21 10° NNE
Cosmos 2278 Rocket 4.1 21:22:33 17° NE 21:22:33 17° NE 21:23:56 10° NE
Cosmos 1269 Rocket 4.5 21:16:15 10° NNW 21:21:25 53° WSW 21:21:56 51° SW
Cosmos 1634 Rocket 4.2 21:19:01 28° SSW 21:22:22 65° WNW 21:28:33 10° N
CENTAUR R/B 3.6 21:14:56 10° NW 21:22:41 53° WSW 21:25:44 38° S
Cosmos 2285 Rocket 4.3 21:21:38 10° SW 21:27:54 64° WNW 21:34:15 10° NNE
Spot 2 Rocket 3.7 21:28:19 63° W 21:28:19 63° W 21:33:20 10° NNW
ATLAS 3B R/B 2.5 21:22:20 10° NW 21:29:12 87° NE 21:30:03 71° SE
Cosmos 1844 Rocket 3.5 21:25:09 10° SW 21:30:34 49° NW 21:36:01 10° NNE
Lacrosse 5 rocket 2.6 21:27:02 10° WNW 21:30:50 41° N 21:30:50 41° N
Cosmos 909 Rocket 3.9 21:40:12 10° NW 21:46:53 82° NE 21:46:53 82° NE
Cosmos 1833 Rocket 3.0 21:44:25 10° NW 21:49:28 63° W 21:49:28 63° W
Cosmos 2180 Rocket 4.5 21:50:40 77° WSW 21:50:53 78° WNW 21:57:15 10° N
Cosmos 2251 Rocket 4.0 21:48:58 10° NNW 21:53:17 58° NNW 21:53:17 58° NNW
Terra 2.9 21:58:06 42° NNW 21:58:06 42° NNW 22:01:16 10° NNW
USA 234 3.3 22:06:56 36° NE 22:09:49 76° NNW 22:16:21 10° WSW
SPOT 5 4.2 22:19:24 40° WNW 22:19:24 40° WNW 22:23:21 10° NNW
Cosmos 2082 Rocket 3.2 22:24:31 10° NW 22:28:23 41° WNW 22:28:23 41° WNW
NOSS 3-4 (A) 4.2 22:41:29 48° NNE 22:41:29 48° NNE 22:46:26 10° NE
NOSS 3-4 (C) 4.2 22:41:40 47° NNE 22:41:40 47° NNE 22:46:32 10° NE
Lacrosse 4 Rocket 4.3 22:37:51 10° NW 22:38:29 14° NW 22:38:29 14° NW
CZ-4C R/B 4.4 23:02:00 18° NE 23:02:00 18° NE 23:03:32 10° NE
Cosmos 2278 Rocket 3.5 23:04:22 37° N 23:04:22 37° N 23:08:14 10° NNE
ATLAS 2AS CENTAUR R/B 3.4 22:59:08 30° WSW 23:03:20 60° NW 23:11:02 10° NE
ATLAS 3B R/B 4.3 23:13:41 10° WNW 23:17:17 24° W 23:17:17 24° W
NOSS 3-1 (C) 4.4 23:21:33 10° NW 23:28:26 54° NNE 23:28:49 53° NE
USA 234 4.1 23:46:10 10° ENE 23:54:27 42° NW 23:58:53 10° WNW
